Location: Poughquag
(41.6090°N, 73.6820°W)
Time: 14:52:17
(UTC-04:00)

Explorer 11/Cluster Stage 4 - Pass Details

Date: 01 June 2020
Orbit: 467 x 1259 km, 28.8° (Epoch: 05 July)

Event Time Altitude Azimuth Distance (km) Brightness Sun altitude
Rises 08:32:24 0° 249° (WSW) 3,691 9.5 32.8°
Reaches altitude 10° 08:35:15 10° 239° (WSW) 2,859 9.1 33.4°
Maximum altitude 08:41:21 30° 181° (S) 1,932 8.8 34.5°
Drops below altitude 10° 08:48:08 10° 124° (SE) 3,197 10.6 35.8°
Sets 08:51:31 0° 114° (ESE) 4,193 11.1 36.4°
